Location: Altstadt
(49.9333°N, 11.5500°E)
Time: 05:43:39
(UTC+00:00)

Daily predictions for brighter satellites

Satellite Brightness Start Highest point End
(mag) Time Altitude Azimuth Time Altitude Azimuth Time Altitude Azimuth
Cosmos 1025 Rocket 4.3 00:03:21 10° NNW 00:06:21 30° WNW 00:06:21 30° WNW
Okean 1 Rocket 3.1 00:09:30 74° NE 00:09:30 74° NE 00:13:35 10° NNE
SJ 16-02 1.6 00:09:53 62° ENE 00:09:53 62° ENE 00:13:54 10° NNE
Okean 2 Rocket 4.1 00:10:41 37° WNW 00:10:41 37° WNW 00:14:51 10° N
SL-16 R/B 2.2 00:07:55 10° NW 00:13:34 62° WSW 00:13:48 61° SW
Cosmos 2263 Rocket 3.6 00:14:58 22° ESE 00:16:04 24° ESE 00:20:25 10° NE
SL-14 R/B 3.8 00:13:38 10° N 00:17:08 53° NE 00:17:08 53° NE
Cosmos 724 4.4 00:11:58 10° NW 00:18:00 80° NE 00:20:59 32° SE
Cosmos 2142 Rocket 4.5 00:17:47 54° S 00:19:24 84° E 00:25:50 10° N
MOZ.5/SAFIR/RUBIN 5/SL-8 3.9 00:22:13 61° ESE 00:22:52 71° ENE 00:27:35 10° N
SL-19 R/B 4.4 00:19:53 10° NNE 00:25:42 66° ESE 00:26:52 53° SSE
Cosmos 1937 Rocket 4.1 00:27:08 42° SE 00:27:58 45° ESE 00:33:01 10° NE
Cosmos 158 Rocket 4.1 00:24:25 10° NNW 00:29:45 60° WSW 00:29:59 60° WSW
CZ-4C R/B 4.1 00:29:47 42° ENE 00:29:50 42° ENE 00:33:20 10° N
Cosmos 990 Rocket 4.0 00:29:47 61° SSE 00:30:24 67° ESE 00:35:33 10° NNE
Okean 1-7 Rocket 4.0 00:26:11 10° N 00:30:34 55° ENE 00:31:14 50° ESE
Cosmos 2297 Rocket 2.9 00:28:55 35° W 00:30:38 46° NW 00:36:06 10° NNE
ADEOS II 4.1 00:27:13 10° NE 00:31:01 20° E 00:33:36 14° SE
Cosmos 2266 Rocket 4.3 00:29:12 10° N 00:35:31 64° ENE 00:38:25 32° SSE
Cosmos 1455 Rocket 3.7 00:35:30 45° ESE 00:36:01 47° E 00:40:19 10° NNE
Cosmos 2112 Rocket 3.9 00:31:25 10° NNW 00:36:34 62° WSW 00:36:46 61° WSW
ATLAS CENTAUR R/B 3.8 00:37:35 11° ESE 00:37:35 11° ESE 00:38:48 10° E
USA 229 DEB 3.7 00:36:45 47° S 00:38:29 63° SE 00:45:17 10° NE
USA 229 3.7 00:36:53 47° S 00:38:35 63° SE 00:45:22 10° NE
UNK 3.9 00:39:00 54° SE 00:39:57 72° ENE 00:44:38 10° N
Cosmos 1726 4.2 00:39:49 19° E 00:40:23 19° E 00:43:03 10° NE
Cosmos 2237 Rocket 4.1 00:39:01 10° WNW 00:41:12 15° W 00:41:12 15° W
Cosmos 2219 4.4 00:41:47 25° W 00:44:05 34° NW 00:49:12 10° NNE
Cosmos 1898 Rocket 3.4 00:43:57 62° S 00:44:50 81° ESE 00:50:04 10° NNE
GEOS 3 Rocket 4.4 00:41:14 10° NE 00:46:18 39° ESE 00:47:19 36° SSE
Cosmos 1892 Rocket 3.4 00:43:15 10° NNW 00:47:43 78° W 00:47:51 77° WSW
Meteor 1-24 Rocket 3.5 00:42:53 10° NNW 00:48:15 67° W 00:49:07 57° SSW
NOSS 2-3 (C) 4.2 00:48:09 44° SE 00:48:22 44° ESE 00:53:09 10° NE
Meteor 1-29 3.9 00:46:22 10° N 00:49:04 41° NW 00:49:04 41° NW
NOSS 3-1 (A) 3.6 00:48:36 45° SSE 00:49:52 53° ESE 00:56:04 10° NE
Cosmos 1680 Rocket 4.0 00:46:47 10° NW 00:51:28 40° W 00:51:28 40° W
IRAS Rocket 4.1 00:49:56 45° SSE 00:51:45 85° WSW 00:57:25 10° NNW
Spot 1 4.1 00:52:54 58° WNW 00:52:54 58° WNW 00:56:36 10° NNW
Cosmos 1603 3.7 00:48:26 10° NNW 00:54:14 85° ENE 00:57:17 29° SSE
Cosmos 1461 3.5 00:55:29 47° W 00:56:17 54° NW 01:00:50 10° NE
DELTA 2 DEB (DPAF) 4.3 01:05:02 54° WSW 01:05:06 54° W 01:09:29 10° NNW
CZ-2D R/B 2.2 01:00:39 10° NNE 01:06:11 82° ESE 01:08:00 44° S
Cosmos 1340 Rocket 2.7 01:07:07 71° SE 01:07:25 77° E 01:11:21 10° NNE
Cosmos 1758 3.3 01:08:43 63° SE 01:09:10 71° E 01:13:10 10° NNE
Cosmos 1766 4.4 01:11:18 30° WNW 01:11:18 30° WNW 01:14:37 10° N
SL-16 R/B 2.6 01:09:25 39° SSW 01:11:43 63° WSW 01:17:57 10° NNW
Timation 1 Rocket 4.3 01:10:12 44° SSW 01:12:16 89° ESE 01:18:17 10° NNE
Cosmos 1943 3.1 01:07:08 10° NNW 01:12:47 84° WSW 01:16:10 25° SSE
Cosmos 1733 4.3 01:14:34 31° WNW 01:14:34 31° WNW 01:17:57 10° N
SL-24 R/B 4.4 01:12:55 46° S 01:14:27 81° W 01:19:52 10° N
Cosmos 1626 3.6 01:12:58 10° NNW 01:15:17 25° WNW 01:15:17 25° WNW
SAR-Lupe-3 4.4 01:12:36 10° NNE 01:16:12 85° WNW 01:16:16 84° WSW
Cosmos 1655 Rocket 4.2 01:10:21 10° NNW 01:16:25 54° W 01:18:27 39° SW
IKONOS-2 4.4 01:18:12 60° SSW 01:18:45 68° WSW 01:23:00 10° NNW
Cosmos 2227 Rocket 3.7 01:18:32 17° W 01:21:38 27° NW 01:26:26 10° NNE
IRS-1D 3.9 01:18:09 10° NNE 01:23:12 57° E 01:25:39 30° SSE
Cosmos 1544 Rocket 3.5 01:22:37 53° SSW 01:23:38 83° W 01:28:09 10° N
Cosmos 1470 2.8 01:24:18 59° WSW 01:24:43 64° WNW 01:28:42 10° N
NPP 3.6 01:19:33 10° NNE 01:24:59 84° WNW 01:27:04 39° SSW
Cosmos 1953 2.8 01:23:54 38° SSE 01:25:07 54° E 01:29:06 10° NNE
Helios 1B rocket 4.3 01:22:25 10° NNW 01:25:15 18° WNW 01:25:58 18° WNW
AQUA 3.7 01:27:57 10° NNE 01:32:45 84° WNW 01:34:26 41° SSW
Atlas Centaur 2 4.4 01:38:02 11° SSE 01:38:02 11° SSE 01:39:21 10° SSE
Resurs 1-4 Rocket 2.4 01:34:23 10° N 01:39:33 55° WNW 01:41:36 34° SW
Exosat Rocket 4.2 01:36:53 29° SSW 01:41:05 79° WNW 01:46:56 10° NNE
Cosmos 1602 Rocket 3.4 01:38:17 10° NNW 01:42:39 79° W 01:44:25 35° S
Meteor 2-21 Rocket 4.4 01:37:05 10° N 01:43:11 87° E 01:48:18 15° S
Cosmos 2098 Rocket 4.4 01:38:42 10° NNW 01:43:57 43° W 01:46:32 30° SW
NOSS 2-3 (E) 3.8 01:44:49 36° WSW 01:46:35 70° NW 01:51:54 10° NE
Cosmos 2227 4.3 01:44:00 33° SW 01:46:43 73° WNW 01:52:31 10° NNE
IDEFIX/ARIANE 42P 4.0 01:43:31 10° NNE 01:48:11 32° E 01:52:50 10° SSE
USA 267 3.8 01:41:49 10° E 01:48:14 61° NNE 01:54:40 10° WNW
Meteor 2-14 Rocket 4.4 01:42:25 10° NNW 01:48:29 73° W 01:52:41 21° S
SJ 16-02 3.2 01:46:52 16° W 01:48:33 19° NW 01:51:44 10° N
NOSS 3-1 (C) 3.9 01:48:09 23° WSW 01:51:40 53° NW 01:58:16 10° NE
Cosmos 1048 Rocket 3.9 01:50:54 10° NNW 01:56:03 74° WSW 02:01:14 10° SSE
IRS-P3 4.2 01:52:50 10° NNE 01:58:13 75° ESE 02:01:51 21° S
Cosmos 1908 3.6 01:56:15 25° S 01:58:21 61° E 02:02:15 10° NNE
Cosmos 2263 Rocket 2.3 01:56:40 29° SW 01:59:31 65° WNW 02:05:05 10° NNE
Cosmos 2298 Rocket 4.0 01:57:57 28° SSW 02:00:53 90° SE 02:06:16 10° NNE
Cosmos 2228 3.9 01:59:31 14° SSE 02:03:04 47° E 02:07:18 10° NNE
Meteor 1-16 Rocket 4.2 02:01:58 22° S 02:05:38 88° E 02:11:19 10° NNE
Cosmos 372 Rocket 4.2 02:04:37 28° SW 02:07:21 62° WNW 02:12:35 10° NNE
Meteor 1-28 Rocket 3.1 02:06:34 20° S 02:09:06 79° WSW 02:12:56 10° NNW
COBE Rocket 4.5 02:08:33 28° SW 02:09:57 34° W 02:14:12 10° NNW
SL-08 R/B 3.3 02:05:26 12° S 02:09:57 75° WSW 02:14:55 10° NNW
NOSS 2-3 (D) 4.3 02:08:30 24° WSW 02:11:02 53° NW 02:16:18 10° NE
ADEOS II 2.1 02:05:59 10° N 02:11:14 69° WNW 02:14:31 23° SSW
Cosmos 1626 Rocket 4.4 02:08:06 10° NNW 02:11:54 31° W 02:13:02 27° WSW
CZ-2C R/B 4.5 02:09:46 10° NE 02:13:07 29° E 02:16:24 10° SSE
CZ-4B R/B 3.7 02:09:33 10° N 02:14:08 49° WNW 02:16:40 25° SW
Cosmos 1356 Rocket 4.4 02:10:31 11° SSE 02:14:15 43° E 02:18:08 10° NNE
Cosmos 1726 2.9 02:14:19 29° WSW 02:15:22 35° WNW 02:18:45 10° N
Cosmos 2285 Rocket 4.0 02:10:59 21° SSW 02:15:22 86° WNW 02:21:43 10° NNE
Cosmos 1900 4.3 02:10:15 10° NW 02:15:23 72° SW 02:20:31 10° SSE
ATLAS CENTAUR R/B 1.2 02:13:46 29° SW 02:15:45 84° SE 02:19:38 10° NE
Cosmos 2297 Rocket 4.5 02:13:13 10° WNW 02:16:13 14° NNW 02:19:13 10° N
Cosmos 1269 Rocket 4.3 02:12:37 10° NNW 02:17:56 70° ENE 02:23:13 10° SSE
Cosmos 1300 4.2 02:15:15 10° SSE 02:18:42 34° E 02:22:12 10° NNE
Cosmos 1553 Rocket 4.0 02:15:28 13° S 02:20:54 86° E 02:27:06 10° N
Cosmos 1844 Rocket 3.4 02:17:42 13° S 02:22:32 50° ESE 02:27:54 10° NE
ERS-2 3.6 02:19:38 10° SE 02:23:02 38° ENE 02:26:28 10° N
GEOS 3 Rocket 4.1 02:19:10 10° NE 02:24:27 56° NW 02:28:25 18° WSW
Meteor 1-11 4.2 02:19:09 10° NNW 02:24:56 86° W 02:30:37 10° S
CZ-4C R/B 3.8 02:23:31 10° SSE 02:26:46 51° ENE 02:30:06 10° N
SL-08 ROCKET BODY 4.4 02:22:03 10° N 02:28:09 87° W 02:34:05 10° S
USA 229 DEB 4.5 02:24:11 13° W 02:29:46 44° NNW 02:36:29 10° NE
USA 229 4.5 02:24:18 13° W 02:29:52 44° NNW 02:36:35 10° NE
Cosmos 1745 Rocket 4.0 02:23:35 10° N 02:29:54 89° W 02:36:06 10° S
CSL-04 DEB 4.5 02:27:17 10° SSE 02:31:13 77° ENE 02:35:13 10° NNW
Cosmos 2084 3.6 02:28:47 22° SW 02:31:34 72° NW 02:36:02 10° NE
ARIANE 5 R/B 2.5 02:26:22 10° NNE 02:31:39 82° WNW 02:36:11 14° SSW
NOSS 8 (E) 4.1 02:32:47 26° SW 02:34:24 90° WNW 02:37:26 10° NE
Cosmos 1758 Rocket 3.9 02:30:42 10° NNW 02:34:50 45° W 02:38:14 14° SSW
ERS-1 4.4 02:31:48 10° NNE 02:36:46 73° WNW 02:41:00 14° SSW
Cosmos 1867 4.2 02:35:23 10° NW 02:40:50 61° NE 02:46:14 10° SE
NOSS 3-1 (A) 4.2 02:36:02 13° W 02:40:56 44° NNW 02:47:27 10° NE
Cosmos 494 Rocket 4.2 02:39:25 10° NW 02:44:22 46° WSW 02:49:18 10° S
CZ-2D R/B 3.8 02:41:41 10° N 02:45:37 20° NW 02:49:18 11° W
Cosmos 2058 Rocket 3.4 02:42:36 10° S 02:47:01 66° E 02:51:25 10° NNE
H-2A R/B 1.9 02:43:48 10° SSE 02:47:54 84° WSW 02:52:02 10° NNW
Cosmos 1703 4.4 02:46:55 10° NNW 02:50:17 27° W 02:52:42 15° SW
CZ-2C R/B 3.7 02:47:53 10° NNE 02:52:09 36° E 02:56:28 10° SSE
S3M 4.1 02:46:23 10° SSW 02:52:47 78° W 02:59:13 10° N
Cosmos 1825 Rocket 4.1 02:49:22 10° NNW 02:53:22 37° W 02:57:19 10° SSW
ATLAS 3B R/B 4.5 02:50:26 10° NW 02:56:28 33° NNE 03:02:39 10° E
SL-16 R/B 4.3 02:54:32 10° WSW 02:56:34 12° W 02:58:38 10° WNW
Landsat 5 3.4 02:52:50 10° S 02:56:51 74° WSW 03:01:04 10° NNW
USA 215 3.5 02:50:55 10° ENE 02:57:27 66° SE 03:03:50 11° SW
Cosmos 1125 Rocket 3.8 02:54:00 14° SW 02:58:28 53° WNW 03:03:39 10° NNE
Cosmos 1953 4.2 02:59:36 11° WSW 03:01:53 17° WNW 03:04:33 10° NNW
Cosmos 1892 3.6 02:59:54 10° N 03:03:42 53° ENE 03:07:26 10° SSE
Cosmos 1953 Rocket 4.0 03:00:37 10° NNW 03:04:52 42° W 03:09:04 10° SSW
CZ-4B R/B 2.8 03:02:44 10° SE 03:05:44 39° ENE 03:08:40 10° N
CZ-2D R/B 3.8 03:05:06 10° N 03:08:55 44° WNW 03:12:41 10° SW
Cosmos 1709 Rocket 3.9 03:03:31 10° NNW 03:09:42 80° W 03:15:48 10° S
PAYLOAD A 4.4 03:09:23 10° NNE 03:14:42 69° ESE 03:19:47 10° S
Resurs 1-4 Rocket 4.2 03:16:44 10° NNW 03:18:16 11° NW 03:19:49 10° WNW
USA 238 DEB 3.9 03:13:37 10° NW 03:20:50 89° SW 03:28:20 10° SE
USA 238 3.9 03:13:43 10° NW 03:20:56 90° W 03:28:26 10° SE
Atlas Centaur 2 4.3 03:22:00 10° SSW 03:25:29 14° S 03:29:15 10° SSE
NOSS 2-2 (E) 3.3 03:23:03 10° SW 03:26:40 77° NW 03:30:53 10° NE
CENTAUR R/B 3.5 03:19:12 10° NW 03:27:06 74° NE 03:35:51 10° SE
NOSS 2-2 (D) 3.2 03:23:57 10° SW 03:27:32 88° ESE 03:31:38 10° NE
IDEFIX/ARIANE 42P 3.1 03:22:59 10° N 03:27:52 42° WNW 03:32:46 10° SW
ADEOS 4.4 03:24:30 10° NNE 03:29:39 53° E 03:34:44 10° S
USA 267 3.3 03:24:43 10° SE 03:31:14 68° SW 03:37:46 10° WNW
Cosmos 2082 Rocket 3.6 03:26:57 10° NNW 03:32:22 44° NE 03:37:43 10° SE
